Time,TemperatureF,DewpointF,PressureIn,WindDirection,WindDirectionDegrees,WindSpeedMPH,WindSpeedGustMPH,Humidity,HourlyPrecipIn,Conditions,Clouds,dailyrainin,SolarRadiationWatts/m^2,SoftwareType,DateUTC
2013-02-18 00:00:00,38.3,35.3,29.92,SSE,162,0.0,0.0,89,0.00,,,0.00,0,WeatherCatV1.12B45,2013-02-18 08:00:00,
2013-02-18 00:05:00,38.2,35.2,29.92,SSE,162,0.0,0.0,89,0.00,,,0.00,0,WeatherCatV1.12B45,2013-02-18 08:05:00,
2013-02-18 00:10:00,38.0,35.3,29.92,SSE,161,0.0,0.0,90,0.00,,,0.00,0,WeatherCatV1.12B45,2013-02-18 08:10:00,
2013-02-18 00:15:00,37.9,35.2,29.92,SSE,157,0.0,0.0,90,0.00,,,0.00,0,WeatherCatV1.12B45,2013-02-18 08:15:00,
2013-02-18 00:20:00,37.9,35.2,29.92,SSE,165,0.0,0.0,90,0.00,,,0.00,0,WeatherCatV1.12B45,2013-02-18 08:20:00,
2013-02-18 00:25:00,37.9,35.2,29.92,South,169,0.0,0.0,90,0.00,,,0.00,0,WeatherCatV1.12B45,2013-02-18 08:25:00,
2013-02-18 00:30:00,37.9,35.2,29.92,SSE,157,0.0,0.0,90,0.00,,,0.00,0,WeatherCatV1.12B45,2013-02-18 08:30:00,
2013-02-18 00:35:00,37.8,35.1,29.92,SSE,162,0.0,0.0,90,0.00,,,0.00,0,WeatherCatV1.12B45,2013-02-18 08:35:00,
2013-02-18 00:40:00,37.6,34.9,29.92,SSE,165,0.0,0.0,90,0.00,,,0.00,0,WeatherCatV1.12B45,2013-02-18 08:40:00,
2013-02-18 00:45:00,37.5,34.8,29.93,SSE,164,0.0,0.0,90,0.00,,,0.00,0,WeatherCatV1.12B45,2013-02-18 08:45:00,
2013-02-18 00:50:00,37.3,34.6,29.93,SSE,162,0.0,0.0,90,0.00,,,0.00,0,WeatherCatV1.12B45,2013-02-18 08:50:00,
2013-02-18 00:55:00,37.2,34.5,29.93,SSE,154,0.0,0.0,90,0.00,,,0.00,0,WeatherCatV1.12B45,2013-02-18 08:55:00,
2013-02-18 01:00:00,37.0,34.3,29.92,SSE,167,0.0,0.0,90,0.00,,,0.00,0,WeatherCatV1.12B45,2013-02-18 09:00:00,
2013-02-18 01:05:00,37.0,34.6,29.92,SSE,154,0.0,0.0,91,0.00,,,0.00,0,WeatherCatV1.12B45,2013-02-18 09:05:00,
2013-02-18 01:10:00,37.0,34.6,29.92,SSE,164,0.0,0.0,91,0.00,,,0.00,0,WeatherCatV1.12B45,2013-02-18 09:10:00,
2013-02-18 01:15:00,37.0,34.6,29.92,SSE,162,0.0,0.0,91,0.00,,,0.00,0,WeatherCatV1.12B45,2013-02-18 09:15:00,
2013-02-18 01:20:00,36.8,34.4,29.92,South,186,0.0,0.0,91,0.00,,,0.00,0,WeatherCatV1.12B45,2013-02-18 09:20:00,
2013-02-18 01:25:00,36.6,34.2,29.92,South,189,0.0,0.0,91,0.00,,,0.00,0,WeatherCatV1.12B45,2013-02-18 09:25:00,
2013-02-18 01:30:00,36.5,34.1,29.92,WSW,241,0.0,0.0,91,0.00,,,0.00,0,WeatherCatV1.12B45,2013-02-18 09:30:00,
2013-02-18 01:35:00,36.3,33.9,29.92,SSW,200,0.0,0.0,91,0.00,,,0.00,0,WeatherCatV1.12B45,2013-02-18 09:35:00,
2013-02-18 01:40:00,36.2,33.8,29.92,SSW,209,0.0,0.0,91,0.00,,,0.00,0,WeatherCatV1.12B45,2013-02-18 09:40:00,
2013-02-18 01:45:00,36.2,33.8,29.92,SSW,208,0.0,0.0,91,0.00,,,0.00,0,WeatherCatV1.12B45,2013-02-18 09:45:00,
2013-02-18 01:50:00,36.2,33.8,29.92,SW,219,0.0,0.0,91,0.00,,,0.00,0,WeatherCatV1.12B45,2013-02-18 09:50:00,
2013-02-18 01:55:00,36.2,33.8,29.92,South,169,0.0,0.0,91,0.00,,,0.00,0,WeatherCatV1.12B45,2013-02-18 09:55:00,
2013-02-18 02:00:00,36.0,33.6,29.92,SSW,196,0.0,0.0,91,0.00,,,0.00,0,WeatherCatV1.12B45,2013-02-18 10:00:00,
2013-02-18 02:05:00,36.0,33.6,29.92,South,181,0.0,0.0,91,0.00,,,0.00,0,WeatherCatV1.12B45,2013-02-18 10:05:00,
2013-02-18 02:10:00,35.9,33.5,29.92,South,188,0.0,0.0,91,0.00,,,0.00,0,WeatherCatV1.12B45,2013-02-18 10:10:00,
2013-02-18 02:15:00,35.8,33.4,29.92,SSE,157,0.0,0.0,91,0.00,,,0.00,0,WeatherCatV1.12B45,2013-02-18 10:15:00,
2013-02-18 02:20:00,35.8,33.4,29.92,SSE,155,0.0,0.0,91,0.00,,,0.00,0,WeatherCatV1.12B45,2013-02-18 10:20:00,
2013-02-18 02:25:00,35.6,33.2,29.92,SSE,151,0.0,0.0,91,0.00,,,0.00,0,WeatherCatV1.12B45,2013-02-18 10:25:00,
2013-02-18 02:30:00,35.5,33.1,29.91,SSE,151,0.0,0.0,91,0.00,,,0.00,0,WeatherCatV1.12B45,2013-02-18 10:30:00,
2013-02-18 02:35:00,35.5,33.1,29.91,SSE,151,0.0,0.0,91,0.00,,,0.00,0,WeatherCatV1.12B45,2013-02-18 10:35:00,
2013-02-18 02:40:00,35.3,32.9,29.91,SSE,151,0.0,0.0,91,0.00,,,0.00,0,WeatherCatV1.12B45,2013-02-18 10:40:00,
2013-02-18 02:45:00,35.3,32.9,29.91,SSE,151,0.0,0.0,91,0.00,,,0.00,0,WeatherCatV1.12B45,2013-02-18 10:45:00,
2013-02-18 02:50:00,35.3,33.2,29.91,SSE,151,0.0,0.0,92,0.00,,,0.00,0,WeatherCatV1.12B45,2013-02-18 10:50:00,
2013-02-18 02:55:00,35.2,33.1,29.91,SSE,151,0.0,0.0,92,0.00,,,0.00,0,WeatherCatV1.12B45,2013-02-18 10:55:00,
2013-02-18 03:00:00,35.2,33.1,29.90,SSE,154,0.0,0.0,92,0.00,,,0.00,0,WeatherCatV1.12B45,2013-02-18 11:00:00,
2013-02-18 03:05:00,35.0,32.9,29.90,SSE,154,0.0,0.0,92,0.00,,,0.00,0,WeatherCatV1.12B45,2013-02-18 11:05:00,
2013-02-18 03:10:00,34.9,32.8,29.90,SSE,151,0.0,0.0,92,0.00,,,0.00,0,WeatherCatV1.12B45,2013-02-18 11:10:00,
2013-02-18 03:15:00,34.9,32.8,29.90,SSE,151,0.0,0.0,92,0.00,,,0.00,0,WeatherCatV1.12B45,2013-02-18 11:15:00,
2013-02-18 03:20:00,34.7,32.6,29.90,South,171,0.0,0.0,92,0.00,,,0.00,0,WeatherCatV1.12B45,2013-02-18 11:20:00,
2013-02-18 03:25:00,34.7,32.6,29.90,South,171,0.0,0.0,92,0.00,,,0.00,0,WeatherCatV1.12B45,2013-02-18 11:25:00,
2013-02-18 03:30:00,34.7,32.6,29.90,SSE,157,0.0,0.0,92,0.00,,,0.00,0,WeatherCatV1.12B45,2013-02-18 11:30:00,
2013-02-18 03:35:00,34.6,32.5,29.90,SSE,162,0.0,0.0,92,0.00,,,0.00,0,WeatherCatV1.12B45,2013-02-18 11:35:00,
2013-02-18 03:40:00,34.6,32.5,29.90,SSE,157,0.0,0.0,92,0.00,,,0.00,0,WeatherCatV1.12B45,2013-02-18 11:40:00,
2013-02-18 03:45:00,34.4,32.3,29.90,South,171,0.0,0.0,92,0.00,,,0.00,0,WeatherCatV1.12B45,2013-02-18 11:45:00,
2013-02-18 03:50:00,34.4,32.3,29.90,SSE,167,0.0,0.0,92,0.00,,,0.00,0,WeatherCatV1.12B45,2013-02-18 11:50:00,
2013-02-18 03:55:00,34.3,32.2,29.90,South,171,0.0,0.0,92,0.00,,,0.00,0,WeatherCatV1.12B45,2013-02-18 11:55:00,
2013-02-18 04:00:00,34.1,32.0,29.90,South,169,0.0,0.0,92,0.00,,,0.00,0,WeatherCatV1.12B45,2013-02-18 12:00:00,
2013-02-18 04:05:00,34.0,31.9,29.90,South,175,0.0,0.0,92,0.00,,,0.00,0,WeatherCatV1.12B45,2013-02-18 12:05:00,
2013-02-18 04:10:00,34.0,31.9,29.90,South,171,0.0,0.0,92,0.00,,,0.00,0,WeatherCatV1.12B45,2013-02-18 12:10:00,
2013-02-18 04:15:00,33.8,31.7,29.90,SSE,162,0.0,0.0,92,0.00,,,0.00,0,WeatherCatV1.12B45,2013-02-18 12:15:00,
2013-02-18 04:20:00,33.8,31.7,29.90,SSE,157,0.0,0.0,92,0.00,,,0.00,0,WeatherCatV1.12B45,2013-02-18 12:20:00,
2013-02-18 04:25:00,33.8,31.7,29.90,SSE,158,0.0,0.0,92,0.00,,,0.00,0,WeatherCatV1.12B45,2013-02-18 12:25:00,
2013-02-18 04:30:00,33.7,31.6,29.90,SSE,158,0.0,0.0,92,0.00,,,0.00,0,WeatherCatV1.12B45,2013-02-18 12:30:00,
2013-02-18 04:35:00,33.7,31.6,29.90,SSE,157,0.0,0.0,92,0.00,,,0.00,0,WeatherCatV1.12B45,2013-02-18 12:35:00,
2013-02-18 04:40:00,33.7,31.6,29.90,South,178,0.0,0.0,92,0.00,,,0.00,0,WeatherCatV1.12B45,2013-02-18 12:40:00,
2013-02-18 04:45:00,33.5,31.4,29.90,South,178,0.0,0.0,92,0.00,,,0.00,0,WeatherCatV1.12B45,2013-02-18 12:45:00,
2013-02-18 04:50:00,33.4,31.3,29.90,South,175,0.0,0.0,92,0.00,,,0.00,0,WeatherCatV1.12B45,2013-02-18 12:50:00,
2013-02-18 04:55:00,33.4,31.3,29.90,South,174,0.0,0.0,92,0.00,,,0.00,0,WeatherCatV1.12B45,2013-02-18 12:55:00,
2013-02-18 05:00:00,33.5,31.4,29.90,South,172,0.0,0.0,92,0.00,,,0.00,0,WeatherCatV1.12B45,2013-02-18 13:00:00,
2013-02-18 05:05:00,33.5,31.4,29.90,South,174,0.0,0.0,92,0.00,,,0.00,0,WeatherCatV1.12B45,2013-02-18 13:05:00,
2013-02-18 05:10:00,33.4,31.3,29.90,SSE,164,0.0,0.0,92,0.00,,,0.00,0,WeatherCatV1.12B45,2013-02-18 13:10:00,
2013-02-18 05:15:00,33.4,31.3,29.91,SSE,157,0.0,0.0,92,0.00,,,0.00,0,WeatherCatV1.12B45,2013-02-18 13:15:00,
2013-02-18 05:20:00,33.4,31.3,29.91,SSE,155,0.0,0.0,92,0.00,,,0.00,0,WeatherCatV1.12B45,2013-02-18 13:20:00,
2013-02-18 05:25:00,33.2,31.1,29.91,SSE,158,0.0,0.0,92,0.00,,,0.00,0,WeatherCatV1.12B45,2013-02-18 13:25:00,
2013-02-18 05:30:00,33.2,31.1,29.90,SSE,157,0.0,0.0,92,0.00,,,0.00,0,WeatherCatV1.12B45,2013-02-18 13:30:00,
2013-02-18 05:35:00,33.2,31.1,29.90,SSE,158,0.0,0.0,92,0.00,,,0.00,0,WeatherCatV1.12B45,2013-02-18 13:35:00,
2013-02-18 05:40:00,33.2,31.1,29.90,SSE,158,0.0,0.0,92,0.00,,,0.00,0,WeatherCatV1.12B45,2013-02-18 13:40:00,
2013-02-18 05:45:00,33.4,31.6,29.91,SSE,167,0.0,0.0,93,0.00,,,0.00,0,WeatherCatV1.12B45,2013-02-18 13:45:00,
2013-02-18 05:50:00,33.7,31.9,29.91,SSE,167,0.0,0.0,93,0.00,,,0.00,0,WeatherCatV1.12B45,2013-02-18 13:50:00,
2013-02-18 05:55:00,33.7,31.9,29.91,SSE,168,0.0,0.0,93,0.00,,,0.00,0,WeatherCatV1.12B45,2013-02-18 13:55:00,
2013-02-18 06:00:00,34.0,32.2,29.90,SSE,167,0.0,0.0,93,0.00,,,0.00,0,WeatherCatV1.12B45,2013-02-18 14:00:00,
2013-02-18 06:05:00,34.0,32.2,29.90,South,169,0.0,0.0,93,0.00,,,0.00,0,WeatherCatV1.12B45,2013-02-18 14:05:00,
2013-02-18 06:10:00,34.1,32.3,29.90,South,169,0.0,0.0,93,0.00,,,0.00,0,WeatherCatV1.12B45,2013-02-18 14:10:00,
2013-02-18 06:15:00,34.1,32.3,29.90,South,169,0.0,0.0,93,0.00,,,0.00,0,WeatherCatV1.12B45,2013-02-18 14:15:00,
2013-02-18 06:20:00,34.3,32.5,29.90,South,169,0.0,0.0,93,0.00,,,0.00,0,WeatherCatV1.12B45,2013-02-18 14:20:00,
2013-02-18 06:25:00,34.3,32.5,29.90,South,172,0.0,0.0,93,0.00,,,0.00,0,WeatherCatV1.12B45,2013-02-18 14:25:00,
2013-02-18 06:30:00,34.1,32.3,29.91,South,188,0.0,0.0,93,0.00,,,0.00,0,WeatherCatV1.12B45,2013-02-18 14:30:00,
2013-02-18 06:35:00,34.3,32.5,29.91,South,179,0.0,0.0,93,0.00,,,0.00,0,WeatherCatV1.12B45,2013-02-18 14:35:00,
2013-02-18 06:40:00,34.4,32.6,29.91,South,182,0.0,0.0,93,0.00,,,0.00,0,WeatherCatV1.12B45,2013-02-18 14:40:00,
2013-02-18 06:45:00,34.4,32.6,29.91,South,181,0.0,0.0,93,0.00,,,0.00,0,WeatherCatV1.12B45,2013-02-18 14:45:00,
2013-02-18 06:50:00,34.7,32.9,29.91,South,179,0.0,0.0,93,0.00,,,0.00,0,WeatherCatV1.12B45,2013-02-18 14:50:00,
2013-02-18 06:55:00,34.9,33.1,29.91,South,181,0.0,0.0,93,0.00,,,0.00,0,WeatherCatV1.12B45,2013-02-18 14:55:00,
2013-02-18 07:00:00,35.0,33.2,29.91,South,184,0.0,0.0,93,0.00,,,0.00,0,WeatherCatV1.12B45,2013-02-18 15:00:00,
2013-02-18 07:05:00,35.0,33.2,29.91,South,184,0.0,0.0,93,0.00,,,0.00,0,WeatherCatV1.12B45,2013-02-18 15:05:00,
2013-02-18 07:10:00,35.0,33.2,29.91,South,191,0.0,0.0,93,0.00,,,0.00,11,WeatherCatV1.12B45,2013-02-18 15:10:00,
2013-02-18 07:15:00,35.0,33.2,29.92,South,182,0.0,0.0,93,0.00,,,0.00,21,WeatherCatV1.12B45,2013-02-18 15:15:00,
2013-02-18 07:20:00,35.2,33.4,29.92,South,188,0.0,0.0,93,0.00,,,0.00,26,WeatherCatV1.12B45,2013-02-18 15:20:00,
2013-02-18 07:25:00,35.3,33.5,29.92,South,179,0.0,0.0,93,0.00,,,0.00,32,WeatherCatV1.12B45,2013-02-18 15:25:00,
2013-02-18 07:30:00,35.5,33.7,29.92,West,261,0.0,0.0,93,0.00,,,0.00,48,WeatherCatV1.12B45,2013-02-18 15:30:00,
2013-02-18 07:35:00,35.8,34.0,29.92,West,278,0.0,0.0,93,0.00,,,0.00,91,WeatherCatV1.12B45,2013-02-18 15:35:00,
2013-02-18 07:40:00,35.9,34.3,29.92,WNW,292,0.0,0.0,94,0.00,,,0.00,90,WeatherCatV1.12B45,2013-02-18 15:40:00,
2013-02-18 07:45:00,36.6,35.0,29.92,WSW,247,0.0,0.0,94,0.00,,,0.00,90,WeatherCatV1.12B45,2013-02-18 15:45:00,
2013-02-18 07:50:00,37.3,35.7,29.92,SW,224,0.0,0.0,94,0.00,,,0.00,104,WeatherCatV1.12B45,2013-02-18 15:50:00,
2013-02-18 07:55:00,38.0,36.4,29.92,SW,220,0.0,0.0,94,0.00,,,0.00,88,WeatherCatV1.12B45,2013-02-18 15:55:00,
2013-02-18 08:00:00,38.5,36.9,29.92,SSW,208,0.0,0.0,94,0.00,,,0.00,88,WeatherCatV1.12B45,2013-02-18 16:00:00,
2013-02-18 08:05:00,39.3,37.7,29.92,SW,215,0.0,0.0,94,0.00,,,0.00,88,WeatherCatV1.12B45,2013-02-18 16:05:00,
2013-02-18 08:10:00,39.9,38.3,29.92,SSW,213,0.0,0.0,94,0.00,,,0.00,121,WeatherCatV1.12B45,2013-02-18 16:10:00,
2013-02-18 08:15:00,40.5,38.9,29.92,WNW,302,0.0,0.0,94,0.00,,,0.00,121,WeatherCatV1.12B45,2013-02-18 16:15:00,
2013-02-18 08:20:00,40.6,39.0,29.92,NW,308,0.0,1.0,94,0.00,,,0.00,121,WeatherCatV1.12B45,2013-02-18 16:20:00,
2013-02-18 08:25:00,41.3,40.0,29.92,NW,308,0.0,0.0,95,0.00,,,0.00,109,WeatherCatV1.12B45,2013-02-18 16:25:00,
2013-02-18 08:30:00,42.2,40.9,29.93,WSW,237,0.0,0.0,95,0.00,,,0.00,171,WeatherCatV1.12B45,2013-02-18 16:30:00,
2013-02-18 08:35:00,42.9,41.6,29.93,NNW,336,0.0,1.0,95,0.00,,,0.00,183,WeatherCatV1.12B45,2013-02-18 16:35:00,
2013-02-18 08:40:00,43.9,42.6,29.93,NNW,340,0.0,1.0,95,0.00,,,0.00,183,WeatherCatV1.12B45,2013-02-18 16:40:00,
2013-02-18 08:45:00,44.5,42.9,29.93,NW,319,0.0,3.0,94,0.00,,,0.00,137,WeatherCatV1.12B45,2013-02-18 16:45:00,
2013-02-18 08:50:00,44.9,43.0,29.93,NW,305,2.0,5.0,93,0.00,,,0.00,118,WeatherCatV1.12B45,2013-02-18 16:50:00,
2013-02-18 08:55:00,45.2,43.0,29.93,NW,309,0.0,4.0,92,0.00,,,0.00,120,WeatherCatV1.12B45,2013-02-18 16:55:00,
2013-02-18 09:00:00,45.8,43.3,29.93,NNW,332,0.0,1.0,91,0.00,,,0.00,109,WeatherCatV1.12B45,2013-02-18 17:00:00,
2013-02-18 09:05:00,46.2,43.1,29.93,NNW,329,0.0,1.0,89,0.00,,,0.00,102,WeatherCatV1.12B45,2013-02-18 17:05:00,
2013-02-18 09:10:00,46.5,42.5,29.93,NNW,332,1.0,1.0,86,0.00,,,0.00,102,WeatherCatV1.12B45,2013-02-18 17:10:00,
2013-02-18 09:15:00,47.0,42.1,29.93,NNW,344,1.0,2.0,83,0.00,,,0.00,102,WeatherCatV1.12B45,2013-02-18 17:15:00,
2013-02-18 09:20:00,47.3,42.1,29.93,NNW,347,2.0,2.0,82,0.00,,,0.00,164,WeatherCatV1.12B45,2013-02-18 17:20:00,
2013-02-18 09:25:00,47.9,41.4,29.93,NNW,336,1.0,2.0,78,0.00,,,0.00,206,WeatherCatV1.12B45,2013-02-18 17:25:00,
2013-02-18 09:30:00,48.3,41.4,29.93,NW,322,1.0,5.0,77,0.00,,,0.00,206,WeatherCatV1.12B45,2013-02-18 17:30:00,
2013-02-18 09:35:00,48.8,41.9,29.93,North,354,0.0,0.0,77,0.00,,,0.00,206,WeatherCatV1.12B45,2013-02-18 17:35:00,
2013-02-18 09:40:00,49.1,41.5,29.93,NNW,340,2.0,3.0,75,0.00,,,0.00,206,WeatherCatV1.12B45,2013-02-18 17:40:00,
2013-02-18 09:45:00,49.5,41.9,29.93,North,354,0.0,3.0,75,0.00,,,0.00,257,WeatherCatV1.12B45,2013-02-18 17:45:00,
2013-02-18 09:50:00,49.8,40.8,29.93,NW,323,7.0,7.0,71,0.00,,,0.00,257,WeatherCatV1.12B45,2013-02-18 17:50:00,
2013-02-18 09:55:00,50.1,40.7,29.93,NNW,343,0.0,5.0,70,0.00,,,0.00,257,WeatherCatV1.12B45,2013-02-18 17:55:00,
2013-02-18 10:00:00,50.2,41.2,29.93,NNW,343,1.0,2.0,71,0.00,,,0.00,271,WeatherCatV1.12B45,2013-02-18 18:00:00,
2013-02-18 10:05:00,50.5,41.5,29.93,NNW,336,0.0,5.0,71,0.00,,,0.00,271,WeatherCatV1.12B45,2013-02-18 18:05:00,
2013-02-18 10:10:00,51.0,40.8,29.93,NNW,339,2.0,2.0,68,0.00,,,0.00,271,WeatherCatV1.12B45,2013-02-18 18:10:00,
2013-02-18 10:15:00,51.4,41.2,29.93,North,349,5.0,6.0,68,0.00,,,0.00,454,WeatherCatV1.12B45,2013-02-18 18:15:00,
2013-02-18 10:20:00,51.6,41.0,29.93,North,349,2.0,2.0,67,0.00,,,0.00,403,WeatherCatV1.12B45,2013-02-18 18:20:00,
2013-02-18 10:25:00,51.7,40.7,29.93,NNW,329,0.0,2.0,66,0.00,,,0.00,403,WeatherCatV1.12B45,2013-02-18 18:25:00,
2013-02-18 10:30:00,51.9,40.9,29.93,NNW,336,0.0,8.0,66,0.00,,,0.00,424,WeatherCatV1.12B45,2013-02-18 18:30:00,
2013-02-18 10:35:00,52.2,41.6,29.93,NNW,332,1.0,3.0,67,0.00,,,0.00,331,WeatherCatV1.12B45,2013-02-18 18:35:00,
2013-02-18 10:40:00,52.3,41.7,29.93,NNW,330,2.0,10.0,67,0.00,,,0.00,378,WeatherCatV1.12B45,2013-02-18 18:40:00,
2013-02-18 10:45:00,52.6,41.6,29.93,North,353,3.0,7.0,66,0.00,,,0.00,568,WeatherCatV1.12B45,2013-02-18 18:45:00,
2013-02-18 10:50:00,52.6,40.8,29.93,NNW,340,1.0,3.0,64,0.00,,,0.00,505,WeatherCatV1.12B45,2013-02-18 18:50:00,
2013-02-18 10:55:00,53.2,41.3,29.93,NW,309,4.0,5.0,64,0.00,,,0.00,524,WeatherCatV1.12B45,2013-02-18 18:55:00,
2013-02-18 11:00:00,53.2,40.5,29.93,NNW,340,0.0,3.0,62,0.00,,,0.00,524,WeatherCatV1.12B45,2013-02-18 19:00:00,
2013-02-18 11:05:00,53.3,40.2,29.93,NW,325,3.0,3.0,61,0.00,,,0.00,524,WeatherCatV1.12B45,2013-02-18 19:05:00,
2013-02-18 11:10:00,53.5,40.0,29.93,NW,320,2.0,2.0,60,0.00,,,0.00,299,WeatherCatV1.12B45,2013-02-18 19:10:00,
2013-02-18 11:15:00,53.3,39.8,29.93,NW,312,0.0,5.0,60,0.00,,,0.00,382,WeatherCatV1.12B45,2013-02-18 19:15:00,
2013-02-18 11:20:00,53.2,40.1,29.93,WNW,287,3.0,6.0,61,0.00,,,0.00,352,WeatherCatV1.12B45,2013-02-18 19:20:00,
2013-02-18 11:25:00,53.2,40.1,29.93,West,263,0.0,6.0,61,0.00,,,0.00,352,WeatherCatV1.12B45,2013-02-18 19:25:00,
2013-02-18 11:30:00,53.6,40.1,29.93,West,278,5.0,5.0,60,0.00,,,0.00,477,WeatherCatV1.12B45,2013-02-18 19:30:00,
2013-02-18 11:35:00,53.6,39.2,29.93,WNW,292,4.0,6.0,58,0.00,,,0.00,477,WeatherCatV1.12B45,2013-02-18 19:35:00,
2013-02-18 11:40:00,53.8,40.2,29.93,NW,306,6.0,8.0,60,0.00,,,0.00,598,WeatherCatV1.12B45,2013-02-18 19:40:00,
2013-02-18 11:45:00,54.5,40.9,29.93,NNW,346,0.0,2.0,60,0.00,,,0.00,936,WeatherCatV1.12B45,2013-02-18 19:45:00,
2013-02-18 11:50:00,55.7,41.6,29.93,WNW,289,2.0,5.0,59,0.00,,,0.00,975,WeatherCatV1.12B45,2013-02-18 19:50:00,
2013-02-18 11:55:00,56.3,41.3,29.93,NW,318,2.0,8.0,57,0.00,,,0.00,637,WeatherCatV1.12B45,2013-02-18 19:55:00,
2013-02-18 12:00:00,56.7,41.2,29.92,NNW,339,3.0,6.0,56,0.00,,,0.00,1015,WeatherCatV1.12B45,2013-02-18 20:00:00,
2013-02-18 12:10:00,56.2,39.8,29.92,North,350,5.0,17.0,54,0.00,,,0.00,1015,WeatherCatV1.12B45,2013-02-18 20:10:00,
2013-02-18 12:15:00,56.0,40.5,29.91,NNW,346,5.0,14.0,56,0.00,,,0.00,890,WeatherCatV1.12B45,2013-02-18 20:15:00,
2013-02-18 12:20:00,56.0,40.5,29.91,NNW,337,6.0,8.0,56,0.00,,,0.00,889,WeatherCatV1.12B45,2013-02-18 20:20:00,
2013-02-18 12:25:00,56.3,41.7,29.91,North,349,12.0,12.0,58,0.00,,,0.00,889,WeatherCatV1.12B45,2013-02-18 20:25:00,
2013-02-18 12:30:00,55.6,40.6,29.91,NNW,343,1.0,7.0,57,0.00,,,0.00,889,WeatherCatV1.12B45,2013-02-18 20:30:00,
2013-02-18 12:40:00,55.9,40.9,29.91,NW,323,7.0,11.0,57,0.00,,,0.00,889,WeatherCatV1.12B45,2013-02-18 20:40:00,
2013-02-18 12:45:00,56.3,41.3,29.90,NNW,336,2.0,8.0,57,0.00,,,0.00,889,WeatherCatV1.12B45,2013-02-18 20:45:00,
2013-02-18 12:50:00,56.5,41.5,29.90,NW,322,2.0,7.0,57,0.00,,,0.00,889,WeatherCatV1.12B45,2013-02-18 20:50:00,
2013-02-18 12:55:00,56.6,38.7,29.90,NNW,335,2.0,5.0,51,0.00,,,0.00,788,WeatherCatV1.12B45,2013-02-18 20:55:00,
2013-02-18 13:00:00,56.7,38.8,29.89,West,281,1.0,3.0,51,0.00,,,0.00,788,WeatherCatV1.12B45,2013-02-18 21:00:00,
2013-02-18 13:05:00,57.0,39.5,29.89,WNW,289,2.0,6.0,52,0.00,,,0.00,743,WeatherCatV1.12B45,2013-02-18 21:05:00,
2013-02-18 13:10:00,56.9,39.5,29.89,NNW,329,1.0,10.0,52,0.00,,,0.00,725,WeatherCatV1.12B45,2013-02-18 21:10:00,
2013-02-18 13:15:00,56.3,39.9,29.88,NNW,335,5.0,5.0,54,0.00,,,0.00,725,WeatherCatV1.12B45,2013-02-18 21:15:00,
2013-02-18 13:20:00,56.2,39.8,29.88,NNW,337,2.0,10.0,54,0.00,,,0.00,707,WeatherCatV1.12B45,2013-02-18 21:20:00,
2013-02-18 13:25:00,55.6,40.2,29.88,NNW,337,0.0,5.0,56,0.00,,,0.00,704,WeatherCatV1.12B45,2013-02-18 21:25:00,
2013-02-18 13:30:00,55.7,40.7,29.88,North,349,8.0,10.0,57,0.00,,,0.00,713,WeatherCatV1.12B45,2013-02-18 21:30:00,
2013-02-18 13:35:00,55.4,40.4,29.88,NNW,343,2.0,10.0,57,0.00,,,0.00,707,WeatherCatV1.12B45,2013-02-18 21:35:00,
2013-02-18 13:40:00,55.7,40.7,29.88,North,353,5.0,5.0,57,0.00,,,0.00,720,WeatherCatV1.12B45,2013-02-18 21:40:00,
2013-02-18 13:45:00,56.0,40.5,29.88,NNW,329,2.0,6.0,56,0.00,,,0.00,709,WeatherCatV1.12B45,2013-02-18 21:45:00,
2013-02-18 13:50:00,55.4,40.0,29.88,North,350,3.0,4.0,56,0.00,,,0.00,709,WeatherCatV1.12B45,2013-02-18 21:50:00,
2013-02-18 13:55:00,54.7,39.3,29.88,North,350,6.0,6.0,56,0.00,,,0.00,709,WeatherCatV1.12B45,2013-02-18 21:55:00,
2013-02-18 14:00:00,54.1,40.1,29.88,NNW,342,3.0,8.0,59,0.00,,,0.00,181,WeatherCatV1.12B45,2013-02-18 22:00:00,
2013-02-18 14:05:00,54.1,40.1,29.88,North,350,2.0,3.0,59,0.00,,,0.00,222,WeatherCatV1.12B45,2013-02-18 22:05:00,
2013-02-18 14:10:00,54.1,40.1,29.88,NNW,343,3.0,3.0,59,0.00,,,0.00,222,WeatherCatV1.12B45,2013-02-18 22:10:00,
2013-02-18 14:15:00,54.8,40.7,29.88,WNW,301,2.0,5.0,59,0.00,,,0.00,222,WeatherCatV1.12B45,2013-02-18 22:15:00,
2013-02-18 14:20:00,54.8,39.4,29.88,NW,315,2.0,8.0,56,0.00,,,0.00,222,WeatherCatV1.12B45,2013-02-18 22:20:00,
2013-02-18 14:25:00,54.8,39.4,29.88,NW,316,4.0,6.0,56,0.00,,,0.00,199,WeatherCatV1.12B45,2013-02-18 22:25:00,
2013-02-18 14:30:00,55.1,39.2,29.88,NW,320,11.0,14.0,55,0.00,,,0.00,690,WeatherCatV1.12B45,2013-02-18 22:30:00,
2013-02-18 14:35:00,55.1,39.7,29.88,NW,323,3.0,6.0,56,0.00,,,0.00,690,WeatherCatV1.12B45,2013-02-18 22:35:00,
2013-02-18 14:45:00,54.7,38.4,29.88,NW,316,1.0,6.0,54,0.00,,,0.00,630,WeatherCatV1.12B45,2013-02-18 22:45:00,
2013-02-18 14:50:00,54.8,38.0,29.88,NNW,339,2.0,5.0,53,0.00,,,0.00,630,WeatherCatV1.12B45,2013-02-18 22:50:00,
2013-02-18 14:55:00,54.4,36.7,29.88,WNW,302,2.0,12.0,51,0.00,,,0.00,630,WeatherCatV1.12B45,2013-02-18 22:55:00,
2013-02-18 15:00:00,53.9,37.6,29.88,NW,309,4.0,7.0,54,0.00,,,0.00,229,WeatherCatV1.12B45,2013-02-18 23:00:00,
2013-02-18 15:05:00,53.6,37.4,29.88,North,353,1.0,6.0,54,0.00,,,0.00,229,WeatherCatV1.12B45,2013-02-18 23:05:00,
2013-02-18 15:10:00,53.3,37.1,29.88,NNW,339,0.0,0.0,54,0.00,,,0.00,229,WeatherCatV1.12B45,2013-02-18 23:10:00,
2013-02-18 15:15:00,53.3,37.5,29.88,NNW,347,3.0,6.0,55,0.00,,,0.00,229,WeatherCatV1.12B45,2013-02-18 23:15:00,
2013-02-18 15:25:00,53.1,37.4,29.88,North,349,2.0,5.0,55,0.00,,,0.00,176,WeatherCatV1.12B45,2013-02-18 23:25:00,
2013-02-18 15:30:00,52.3,36.6,29.88,North,357,3.0,6.0,55,0.00,,,0.00,215,WeatherCatV1.12B45,2013-02-18 23:30:00,
2013-02-18 15:35:00,52.0,36.3,29.88,North,353,6.0,6.0,55,0.00,,,0.00,220,WeatherCatV1.12B45,2013-02-18 23:35:00,
2013-02-18 15:40:00,51.7,37.0,29.88,NW,325,4.0,6.0,57,0.00,,,0.00,220,WeatherCatV1.12B45,2013-02-18 23:40:00,
2013-02-18 15:45:00,51.7,37.4,29.88,North,354,4.0,5.0,58,0.00,,,0.00,220,WeatherCatV1.12B45,2013-02-18 23:45:00,
2013-02-18 15:50:00,51.7,37.0,29.88,North,0,2.0,3.0,57,0.00,,,0.00,220,WeatherCatV1.12B45,2013-02-18 23:50:00,
2013-02-18 15:55:00,51.6,36.9,29.88,North,357,5.0,7.0,57,0.00,,,0.00,308,WeatherCatV1.12B45,2013-02-18 23:55:00,
2013-02-18 16:00:00,51.6,37.7,29.88,North,349,3.0,5.0,59,0.00,,,0.00,308,WeatherCatV1.12B45,2013-02-19 00:00:00,
2013-02-18 16:20:00,50.8,38.7,29.89,North,357,2.0,3.0,63,0.00,,,0.00,62,WeatherCatV1.12B45,2013-02-19 00:20:00,
2013-02-18 16:25:00,50.7,38.6,29.89,North,349,0.0,3.0,63,0.00,,,0.00,51,WeatherCatV1.12B45,2013-02-19 00:25:00,
2013-02-18 16:30:00,50.5,38.8,29.89,NNW,340,1.0,2.0,64,0.00,,,0.00,51,WeatherCatV1.12B45,2013-02-19 00:30:00,
2013-02-18 16:35:00,50.5,38.8,29.89,North,349,0.0,2.0,64,0.00,,,0.00,63,WeatherCatV1.12B45,2013-02-19 00:35:00,
2013-02-18 16:40:00,50.5,38.8,29.89,North,356,1.0,5.0,64,0.00,,,0.00,69,WeatherCatV1.12B45,2013-02-19 00:40:00,
2013-02-18 16:50:00,50.4,39.1,29.88,North,350,1.0,1.0,65,0.00,,,0.00,67,WeatherCatV1.12B45,2013-02-19 00:50:00,
2013-02-18 16:55:00,50.4,38.3,29.88,North,356,0.0,3.0,63,0.00,,,0.00,70,WeatherCatV1.12B45,2013-02-19 00:55:00,
2013-02-18 17:00:00,50.4,38.3,29.88,NNW,344,0.0,7.0,63,0.00,,,0.00,62,WeatherCatV1.12B45,2013-02-19 01:00:00,
2013-02-18 17:05:00,50.2,38.1,29.88,North,349,1.0,2.0,63,0.00,,,0.00,49,WeatherCatV1.12B45,2013-02-19 01:05:00,
2013-02-18 17:10:00,50.2,37.7,29.88,North,356,0.0,7.0,62,0.00,,,0.00,42,WeatherCatV1.12B45,2013-02-19 01:10:00,
2013-02-18 17:15:00,50.1,38.0,29.88,North,353,1.0,1.0,63,0.00,,,0.00,35,WeatherCatV1.12B45,2013-02-19 01:15:00,
2013-02-18 17:20:00,50.1,38.0,29.88,NNW,339,2.0,2.0,63,0.00,,,0.00,35,WeatherCatV1.12B45,2013-02-19 01:20:00,
2013-02-18 17:25:00,49.9,38.2,29.88,NW,316,0.0,2.0,64,0.00,,,0.00,16,WeatherCatV1.12B45,2013-02-19 01:25:00,
2013-02-18 17:35:00,49.8,38.5,29.88,NW,312,1.0,3.0,65,0.00,,,0.00,9,WeatherCatV1.12B45,2013-02-19 01:35:00,
2013-02-18 17:40:00,49.6,38.3,29.88,NNW,342,1.0,7.0,65,0.00,,,0.00,5,WeatherCatV1.12B45,2013-02-19 01:40:00,
2013-02-18 17:45:00,49.6,38.3,29.88,NW,318,0.0,0.0,65,0.00,,,0.00,5,WeatherCatV1.12B45,2013-02-19 01:45:00,
2013-02-18 17:50:00,49.5,38.2,29.88,NNW,330,0.0,0.0,65,0.00,,,0.00,0,WeatherCatV1.12B45,2013-02-19 01:50:00,
2013-02-18 17:55:00,49.5,38.2,29.88,NNW,329,0.0,1.0,65,0.00,,,0.00,0,WeatherCatV1.12B45,2013-02-19 01:55:00,
2013-02-18 18:00:00,49.4,38.5,29.88,North,0,3.0,3.0,66,0.00,,,0.00,0,WeatherCatV1.12B45,2013-02-19 02:00:00,
2013-02-18 18:05:00,49.4,38.5,29.88,NW,326,0.0,0.0,66,0.00,,,0.00,0,WeatherCatV1.12B45,2013-02-19 02:05:00,
2013-02-18 18:10:00,49.4,38.9,29.88,NNW,329,0.0,0.0,67,0.00,,,0.00,0,WeatherCatV1.12B45,2013-02-19 02:10:00,
2013-02-18 18:15:00,49.4,38.9,29.88,NNW,340,0.0,2.0,67,0.00,,,0.00,0,WeatherCatV1.12B45,2013-02-19 02:15:00,
2013-02-18 18:20:00,49.2,38.7,29.88,NNW,332,0.0,2.0,67,0.00,,,0.00,0,WeatherCatV1.12B45,2013-02-19 02:20:00,
2013-02-18 18:30:00,49.2,39.1,29.88,NNW,346,0.0,5.0,68,0.00,,,0.00,0,WeatherCatV1.12B45,2013-02-19 02:30:00,
2013-02-18 18:35:00,49.2,39.1,29.88,NNW,333,1.0,2.0,68,0.00,,,0.00,0,WeatherCatV1.12B45,2013-02-19 02:35:00,
2013-02-18 18:40:00,49.2,39.5,29.88,NNW,329,0.0,3.0,69,0.00,,,0.00,0,WeatherCatV1.12B45,2013-02-19 02:40:00,
2013-02-18 18:45:00,49.1,39.0,29.87,NW,305,0.0,3.0,68,0.00,,,0.00,0,WeatherCatV1.12B45,2013-02-19 02:45:00,
2013-02-18 18:50:00,49.1,39.0,29.87,WNW,294,0.0,1.0,68,0.00,,,0.00,0,WeatherCatV1.12B45,2013-02-19 02:50:00,
2013-02-18 18:55:00,48.9,38.8,29.87,WNW,287,0.0,1.0,68,0.00,,,0.00,0,WeatherCatV1.12B45,2013-02-19 02:55:00,
2013-02-18 19:00:00,48.9,39.2,29.88,WNW,302,0.0,0.0,69,0.00,,,0.00,0,WeatherCatV1.12B45,2013-02-19 03:00:00,
2013-02-18 19:05:00,48.9,39.2,29.88,NW,322,1.0,3.0,69,0.00,,,0.00,0,WeatherCatV1.12B45,2013-02-19 03:05:00,
2013-02-18 19:15:00,48.9,39.2,29.88,NNW,340,0.0,0.0,69,0.00,,,0.00,0,WeatherCatV1.12B45,2013-02-19 03:15:00,
2013-02-18 19:20:00,48.9,39.2,29.88,North,349,0.0,2.0,69,0.00,,,0.00,0,WeatherCatV1.12B45,2013-02-19 03:20:00,
2013-02-18 19:25:00,48.9,39.2,29.88,North,349,0.0,0.0,69,0.00,,,0.00,0,WeatherCatV1.12B45,2013-02-19 03:25:00,
2013-02-18 19:30:00,48.9,39.2,29.88,NNW,344,1.0,3.0,69,0.00,,,0.00,0,WeatherCatV1.12B45,2013-02-19 03:30:00,
2013-02-18 19:35:00,48.9,38.8,29.88,NW,315,0.0,1.0,68,0.00,,,0.00,0,WeatherCatV1.12B45,2013-02-19 03:35:00,
2013-02-18 19:40:00,48.9,38.8,29.88,NNW,339,3.0,4.0,68,0.00,,,0.00,0,WeatherCatV1.12B45,2013-02-19 03:40:00,
2013-02-18 19:45:00,48.9,38.4,29.88,NNW,344,3.0,3.0,67,0.00,,,0.00,0,WeatherCatV1.12B45,2013-02-19 03:45:00,
2013-02-18 19:50:00,48.9,38.4,29.88,NW,318,0.0,0.0,67,0.00,,,0.00,0,WeatherCatV1.12B45,2013-02-19 03:50:00,
2013-02-18 19:55:00,48.9,38.4,29.88,NW,322,0.0,2.0,67,0.00,,,0.00,0,WeatherCatV1.12B45,2013-02-19 03:55:00,
2013-02-18 20:00:00,48.8,38.0,29.88,NW,322,0.0,0.0,66,0.00,,,0.00,0,WeatherCatV1.12B45,2013-02-19 04:00:00,
2013-02-18 20:05:00,48.8,38.3,29.88,NNW,335,1.0,1.0,67,0.00,,,0.00,0,WeatherCatV1.12B45,2013-02-19 04:05:00,
2013-02-18 20:10:00,48.8,38.3,29.88,NW,309,2.0,5.0,67,0.00,,,0.00,0,WeatherCatV1.12B45,2013-02-19 04:10:00,
2013-02-18 20:15:00,48.8,38.3,29.88,NW,309,0.0,1.0,67,0.00,,,0.00,0,WeatherCatV1.12B45,2013-02-19 04:15:00,
2013-02-18 20:20:00,48.6,38.1,29.88,NW,311,0.0,0.0,67,0.00,,,0.00,0,WeatherCatV1.12B45,2013-02-19 04:20:00,
2013-02-18 20:25:00,48.6,38.1,29.88,NW,323,1.0,1.0,67,0.00,,,0.00,0,WeatherCatV1.12B45,2013-02-19 04:25:00,
2013-02-18 20:30:00,48.6,38.1,29.88,NW,316,0.0,3.0,67,0.00,,,0.00,0,WeatherCatV1.12B45,2013-02-19 04:30:00,
2013-02-18 20:35:00,48.5,38.4,29.88,NW,315,0.0,0.0,68,0.00,,,0.00,0,WeatherCatV1.12B45,2013-02-19 04:35:00,
2013-02-18 20:40:00,48.5,38.0,29.88,NW,312,0.0,0.0,67,0.00,,,0.00,0,WeatherCatV1.12B45,2013-02-19 04:40:00,
2013-02-18 20:45:00,48.5,38.4,29.88,NW,316,0.0,0.0,68,0.00,,,0.00,0,WeatherCatV1.12B45,2013-02-19 04:45:00,
2013-02-18 20:50:00,48.5,38.4,29.88,NW,306,0.0,0.0,68,0.00,,,0.00,0,WeatherCatV1.12B45,2013-02-19 04:50:00,
2013-02-18 20:55:00,48.3,38.2,29.88,NNW,346,1.0,3.0,68,0.00,,,0.00,0,WeatherCatV1.12B45,2013-02-19 04:55:00,
2013-02-18 21:05:00,48.3,37.9,29.89,NW,311,0.0,1.0,67,0.00,,,0.00,0,WeatherCatV1.12B45,2013-02-19 05:05:00,
2013-02-18 21:10:00,48.3,37.5,29.89,NW,320,1.0,1.0,66,0.00,,,0.00,0,WeatherCatV1.12B45,2013-02-19 05:10:00,
2013-02-18 21:15:00,48.3,37.5,29.89,NNW,346,2.0,4.0,66,0.00,,,0.00,0,WeatherCatV1.12B45,2013-02-19 05:15:00,
2013-02-18 21:20:00,48.3,37.1,29.89,NW,323,2.0,2.0,65,0.00,,,0.00,0,WeatherCatV1.12B45,2013-02-19 05:20:00,
2013-02-18 21:25:00,48.3,37.1,29.89,NW,323,0.0,5.0,65,0.00,,,0.00,0,WeatherCatV1.12B45,2013-02-19 05:25:00,
2013-02-18 21:30:00,48.3,36.7,29.89,North,356,3.0,3.0,64,0.00,,,0.00,0,WeatherCatV1.12B45,2013-02-19 05:30:00,
2013-02-18 21:35:00,48.3,36.7,29.89,North,349,5.0,6.0,64,0.00,,,0.00,0,WeatherCatV1.12B45,2013-02-19 05:35:00,
2013-02-18 21:40:00,48.3,36.7,29.89,North,354,1.0,7.0,64,0.00,,,0.00,0,WeatherCatV1.12B45,2013-02-19 05:40:00,
2013-02-18 21:45:00,48.2,36.6,29.90,North,353,0.0,1.0,64,0.00,,,0.00,0,WeatherCatV1.12B45,2013-02-19 05:45:00,
2013-02-18 21:50:00,48.2,36.6,29.90,NNW,347,0.0,1.0,64,0.00,,,0.00,0,WeatherCatV1.12B45,2013-02-19 05:50:00,
2013-02-18 21:55:00,48.0,36.4,29.90,NW,319,0.0,3.0,64,0.00,,,0.00,0,WeatherCatV1.12B45,2013-02-19 05:55:00,
2013-02-18 22:00:00,48.0,36.4,29.89,North,356,0.0,0.0,64,0.00,,,0.00,0,WeatherCatV1.12B45,2013-02-19 06:00:00,
2013-02-18 22:05:00,48.0,36.4,29.89,NW,313,0.0,2.0,64,0.00,,,0.00,0,WeatherCatV1.12B45,2013-02-19 06:05:00,
2013-02-18 22:10:00,48.0,36.4,29.89,NW,313,1.0,1.0,64,0.00,,,0.00,0,WeatherCatV1.12B45,2013-02-19 06:10:00,
2013-02-18 22:15:00,47.7,36.1,29.89,NW,319,1.0,1.0,64,0.00,,,0.00,0,WeatherCatV1.12B45,2013-02-19 06:15:00,
2013-02-18 22:20:00,47.6,36.0,29.89,NNW,329,0.0,1.0,64,0.00,,,0.00,0,WeatherCatV1.12B45,2013-02-19 06:20:00,
2013-02-18 22:25:00,47.4,36.2,29.89,North,356,1.0,2.0,65,0.00,,,0.00,0,WeatherCatV1.12B45,2013-02-19 06:25:00,
2013-02-18 22:30:00,47.3,36.1,29.89,North,356,0.0,0.0,65,0.00,,,0.00,0,WeatherCatV1.12B45,2013-02-19 06:30:00,
2013-02-18 22:35:00,47.3,36.5,29.89,North,353,0.0,0.0,66,0.00,,,0.00,0,WeatherCatV1.12B45,2013-02-19 06:35:00,
2013-02-18 22:40:00,46.8,36.0,29.89,NNW,347,0.0,0.0,66,0.00,,,0.00,0,WeatherCatV1.12B45,2013-02-19 06:40:00,
2013-02-18 22:45:00,46.7,36.3,29.88,SW,220,0.0,0.0,67,0.00,,,0.00,0,WeatherCatV1.12B45,2013-02-19 06:45:00,
2013-02-18 22:50:00,46.5,36.1,29.88,WSW,251,0.0,0.0,67,0.00,,,0.00,0,WeatherCatV1.12B45,2013-02-19 06:50:00,
2013-02-18 22:55:00,46.5,36.5,29.88,WSW,240,0.0,0.0,68,0.00,,,0.00,0,WeatherCatV1.12B45,2013-02-19 06:55:00,
2013-02-18 23:00:00,46.4,36.4,29.88,WSW,247,0.0,0.0,68,0.00,,,0.00,0,WeatherCatV1.12B45,2013-02-19 07:00:00,
2013-02-18 23:05:00,46.5,36.5,29.88,West,263,0.0,2.0,68,0.00,,,0.00,0,WeatherCatV1.12B45,2013-02-19 07:05:00,
2013-02-18 23:10:00,46.8,36.4,29.88,WNW,296,1.0,4.0,67,0.00,,,0.00,0,WeatherCatV1.12B45,2013-02-19 07:10:00,
2013-02-18 23:15:00,47.0,36.6,29.88,WNW,299,0.0,0.0,67,0.00,,,0.00,0,WeatherCatV1.12B45,2013-02-19 07:15:00,
2013-02-18 23:20:00,47.1,36.3,29.88,WNW,302,0.0,0.0,66,0.00,,,0.00,0,WeatherCatV1.12B45,2013-02-19 07:20:00,
2013-02-18 23:25:00,47.1,36.7,29.88,WNW,301,0.0,1.0,67,0.00,,,0.00,0,WeatherCatV1.12B45,2013-02-19 07:25:00,
2013-02-18 23:30:00,47.1,36.3,29.88,NW,306,0.0,0.0,66,0.00,,,0.00,0,WeatherCatV1.12B45,2013-02-19 07:30:00,
2013-02-18 23:35:00,47.3,36.5,29.88,WNW,282,0.0,1.0,66,0.00,,,0.00,0,WeatherCatV1.12B45,2013-02-19 07:35:00,
2013-02-18 23:40:00,47.3,36.5,29.88,WNW,285,0.0,0.0,66,0.00,,,0.00,0,WeatherCatV1.12B45,2013-02-19 07:40:00,
2013-02-18 23:45:00,47.3,36.5,29.88,WNW,284,0.0,0.0,66,0.00,,,0.00,0,WeatherCatV1.12B45,2013-02-19 07:45:00,
2013-02-18 23:50:00,47.3,36.9,29.88,WNW,285,0.0,0.0,67,0.00,,,0.00,0,WeatherCatV1.12B45,2013-02-19 07:50:00,
2013-02-18 23:55:00,47.3,36.5,29.88,NW,318,0.0,0.0,66,0.00,,,0.00,0,WeatherCatV1.12B45,2013-02-19 07:55:00,